BCS194 EDDP-LEVT

Flight info

Callsign BCS194
Flight time 2h 13m
Altitude 36000
Route NEVKO2S NEVKO Q243 BAMKI Z94 KOMIB DCT TEDGO/N0453F350 N869 NATOR DCT LUTIX DCT BENOT DCT NEMOS DCT NINTU DCT MEBAK DCT REPSI DCT LERGA DCT MINSO DCT NARAK DCT AGN DCT DIGPO DCT ERAKI N976 PPN
Aircraft A306/H-SDE1FGHIRWXYZ/HB1

Departure

Time 2026-05-04 15:46
Airport Leipzig/Halle Airport (EDDP)

Arrival

Time 2026-05-04 17:59
Airport Vitoria Airport (LEVT)
Time Latitude Longitude Altitude Speed Heading
2026-05-04 15:16 51.40936 12.24339 473 ft 0 kts 85°
2026-05-04 15:28 51.40936 12.24338 473 ft 1 kts 85°
2026-05-04 15:28 51.40929 12.24265 466 ft 4 kts 58°
2026-05-04 15:29 51.40911 12.24238 467 ft 4 kts 16°
2026-05-04 15:30 51.40863 12.24236 466 ft 0 kts 356°
2026-05-04 15:40 51.40864 12.24236 471 ft 1 kts 356°
2026-05-04 15:41 51.40887 12.24233 471 ft 5 kts 355°
2026-05-04 15:41 51.40942 12.24227 469 ft 11 kts 356°
2026-05-04 15:41 51.41034 12.24218 474 ft 14 kts 356°
2026-05-04 15:41 51.41075 12.24257 469 ft 6 kts 73°
2026-05-04 15:42 51.41082 12.24332 477 ft 10 kts 84°
2026-05-04 15:42 51.41090 12.24488 473 ft 17 kts 86°
2026-05-04 15:42 51.41098 12.24667 472 ft 15 kts 85°
2026-05-04 15:42 51.41106 12.24827 476 ft 14 kts 86°
2026-05-04 15:43 51.41113 12.24974 478 ft 13 kts 85°
2026-05-04 15:43 51.41120 12.25124 475 ft 14 kts 85°
2026-05-04 15:43 51.41128 12.25286 478 ft 15 kts 85°
2026-05-04 15:43 51.41135 12.25452 475 ft 14 kts 86°
2026-05-04 15:44 51.41147 12.25597 476 ft 12 kts 62°
2026-05-04 15:44 51.41211 12.25626 480 ft 10 kts 354°
2026-05-04 15:44 51.41279 12.25615 477 ft 9 kts 355°
2026-05-04 15:44 51.41343 12.25606 478 ft 9 kts 355°
2026-05-04 15:45 51.41397 12.25587 477 ft 6 kts 316°
2026-05-04 15:45 51.41399 12.25524 482 ft 6 kts 267°
2026-05-04 15:45 51.41393 12.25397 479 ft 21 kts 265°
2026-05-04 15:45 51.41366 12.24834 478 ft 84 kts 265°
2026-05-04 15:46 51.41308 12.23581 478 ft 141 kts 265°
2026-05-04 15:46 51.41220 12.21745 627 ft 180 kts 267°
2026-05-04 15:46 51.41113 12.19750 1580 ft 183 kts 264°
2026-05-04 15:46 51.40969 12.17634 2740 ft 195 kts 263°
2026-05-04 15:47 51.40832 12.15501 4225 ft 190 kts 265°
2026-05-04 15:47 51.40750 12.13391 5243 ft 197 kts 266°
2026-05-04 15:47 51.40665 12.11039 5673 ft 227 kts 266°
2026-05-04 15:47 51.40555 12.08342 6104 ft 254 kts 265°
2026-05-04 15:48 51.40424 12.05446 6867 ft 264 kts 265°
2026-05-04 15:48 51.40283 12.02493 7810 ft 266 kts 264°
2026-05-04 15:48 51.39559 11.96690 9754 ft 270 kts 243°
2026-05-04 15:49 51.38477 11.94195 10474 ft 280 kts 229°
2026-05-04 15:49 51.37064 11.91877 10824 ft 301 kts 223°
2026-05-04 15:49 51.35441 11.89666 11142 ft 319 kts 219°
2026-05-04 15:49 51.33635 11.87413 11448 ft 337 kts 218°
2026-05-04 15:50 51.31716 11.85077 11756 ft 353 kts 218°
2026-05-04 15:50 51.29735 11.82648 12221 ft 362 kts 218°
2026-05-04 15:50 51.27761 11.80188 12782 ft 367 kts 219°
2026-05-04 15:50 51.25739 11.77629 13424 ft 371 kts 219°
2026-05-04 15:51 51.23726 11.75057 14034 ft 375 kts 219°
2026-05-04 15:51 51.21684 11.72434 14609 ft 378 kts 219°
2026-05-04 15:51 51.19619 11.69777 15184 ft 381 kts 219°
2026-05-04 15:51 51.17565 11.67136 15760 ft 385 kts 219°
2026-05-04 15:52 51.15468 11.64446 16336 ft 388 kts 219°
2026-05-04 15:52 51.13350 11.61733 16927 ft 391 kts 219°
2026-05-04 15:52 51.11214 11.59002 17498 ft 395 kts 219°
2026-05-04 15:52 51.09062 11.56255 18052 ft 398 kts 220°
2026-05-04 15:53 51.06914 11.53516 18553 ft 401 kts 220°
2026-05-04 15:53 51.04724 11.50729 19015 ft 404 kts 220°
2026-05-04 15:53 51.02521 11.47929 19477 ft 406 kts 219°
2026-05-04 15:53 51.00327 11.45145 19931 ft 408 kts 219°
2026-05-04 15:54 50.98097 11.42319 20417 ft 409 kts 219°
2026-05-04 15:54 50.95864 11.39491 20849 ft 412 kts 219°
2026-05-04 15:54 50.93613 11.36644 21286 ft 415 kts 219°
2026-05-04 15:54 50.91350 11.33783 21777 ft 415 kts 219°
2026-05-04 15:55 50.89109 11.30957 22218 ft 417 kts 219°
2026-05-04 15:55 50.86828 11.28084 22614 ft 420 kts 219°
2026-05-04 15:55 50.84535 11.25199 23002 ft 422 kts 219°
2026-05-04 15:55 50.82231 11.22304 23392 ft 424 kts 219°
2026-05-04 15:56 50.79910 11.19390 23749 ft 426 kts 219°
2026-05-04 15:56 50.77581 11.16471 24089 ft 427 kts 219°
2026-05-04 15:56 50.75275 11.13584 24420 ft 428 kts 219°
2026-05-04 15:56 50.72921 11.10641 24715 ft 430 kts 219°
2026-05-04 15:57 50.70563 11.07697 25015 ft 432 kts 219°
2026-05-04 15:57 50.68227 11.04784 25294 ft 434 kts 219°
2026-05-04 15:57 50.65853 11.01827 25601 ft 435 kts 219°
2026-05-04 15:57 50.63462 10.98855 25884 ft 436 kts 219°
2026-05-04 15:58 50.61065 10.95878 26143 ft 438 kts 219°
2026-05-04 15:58 50.58664 10.92900 26410 ft 440 kts 219°
2026-05-04 15:58 50.56285 10.89953 26669 ft 441 kts 219°
2026-05-04 15:58 50.53869 10.86963 26923 ft 443 kts 219°
2026-05-04 15:59 50.51434 10.83954 27167 ft 444 kts 219°
2026-05-04 15:59 50.48999 10.80949 27421 ft 445 kts 219°
2026-05-04 15:59 50.46584 10.77973 27739 ft 445 kts 219°
2026-05-04 15:59 50.44145 10.74972 28083 ft 444 kts 219°
2026-05-04 16:00 50.41711 10.71982 28455 ft 442 kts 219°
2026-05-04 16:00 50.39284 10.69005 28829 ft 441 kts 219°
2026-05-04 16:00 50.36889 10.66072 29174 ft 440 kts 219°
2026-05-04 16:00 50.34477 10.63120 29508 ft 440 kts 219°
2026-05-04 16:01 50.32061 10.60168 29864 ft 439 kts 219°
2026-05-04 16:01 50.29683 10.57263 30179 ft 438 kts 219°
2026-05-04 16:01 50.27278 10.54332 30478 ft 437 kts 219°
2026-05-04 16:01 50.24868 10.51397 30787 ft 436 kts 219°
2026-05-04 16:02 50.22536 10.48375 31108 ft 433 kts 224°
2026-05-04 16:02 50.20374 10.45111 31454 ft 431 kts 225°
2026-05-04 16:02 50.16187 10.38512 32118 ft 427 kts 226°
2026-05-04 16:03 50.14122 10.35203 32488 ft 425 kts 227°
2026-05-04 16:03 50.12057 10.31890 32811 ft 424 kts 227°
2026-05-04 16:03 50.10011 10.28639 33091 ft 423 kts 225°
2026-05-04 16:03 50.07781 10.25640 33399 ft 424 kts 219°
2026-05-04 16:04 50.05302 10.23104 33730 ft 425 kts 211°
2026-05-04 16:04 50.00052 10.18943 34283 ft 423 kts 212°
2026-05-04 16:04 49.97548 10.16548 34516 ft 422 kts 214°
2026-05-04 16:05 49.95111 10.14071 34684 ft 423 kts 216°
2026-05-04 16:05 49.92662 10.11496 34872 ft 423 kts 216°
2026-05-04 16:05 49.87839 10.06336 35340 ft 422 kts 216°
2026-05-04 16:06 49.85417 10.03745 35561 ft 422 kts 216°
2026-05-04 16:06 49.78960 9.96896 35975 ft 421 kts 216°
2026-05-04 16:07 49.75725 9.93484 35967 ft 418 kts 216°
2026-05-04 16:08 49.66115 9.83388 35983 ft 418 kts 215°
2026-05-04 16:09 49.54102 9.70839 35981 ft 419 kts 215°
2026-05-04 16:10 49.44423 9.60781 35987 ft 420 kts 215°
2026-05-04 16:11 49.34737 9.50764 35973 ft 420 kts 215°
2026-05-04 16:12 49.20126 9.35750 35974 ft 422 kts 215°
2026-05-04 16:13 49.10399 9.25812 35968 ft 419 kts 214°
2026-05-04 16:14 49.00706 9.15956 35967 ft 419 kts 214°
2026-05-04 16:16 48.88570 9.03684 35967 ft 418 kts 214°
2026-05-04 16:17 48.76472 8.91524 35968 ft 418 kts 214°
2026-05-04 16:18 48.66766 8.81818 35969 ft 418 kts 214°
2026-05-04 16:19 48.54605 8.69721 35970 ft 418 kts 214°
2026-05-04 16:20 48.42473 8.57721 35974 ft 417 kts 213°
2026-05-04 16:22 48.30330 8.45781 35974 ft 417 kts 213°
2026-05-04 16:23 48.15759 8.31549 35975 ft 417 kts 213°
2026-05-04 16:25 48.01133 8.17356 35983 ft 418 kts 213°
2026-05-04 16:26 47.84019 8.00874 35986 ft 419 kts 213°
2026-05-04 16:28 47.71804 7.89190 35998 ft 419 kts 213°
2026-05-04 16:29 47.54598 7.72843 36016 ft 420 kts 213°
2026-05-04 16:31 47.42297 7.61232 36014 ft 419 kts 213°
2026-05-04 16:32 47.27556 7.47409 36046 ft 419 kts 213°
2026-05-04 16:33 47.18559 7.38928 36045 ft 416 kts 217°
2026-05-04 16:34 47.14365 7.33105 36047 ft 415 kts 229°
2026-05-04 16:34 47.12525 7.29898 36047 ft 415 kts 230°
2026-05-04 16:35 47.01744 7.09959 36039 ft 415 kts 231°
2026-05-04 16:36 46.96335 7.00069 36036 ft 415 kts 231°
2026-05-04 16:37 46.90912 6.90202 36047 ft 413 kts 231°
2026-05-04 16:38 46.83706 6.77162 36049 ft 413 kts 231°
2026-05-04 16:39 46.74682 6.60921 36045 ft 412 kts 231°
2026-05-04 16:40 46.67448 6.47968 36054 ft 412 kts 230°
2026-05-04 16:41 46.58422 6.31890 36043 ft 411 kts 230°
2026-05-04 16:43 46.49361 6.15848 36037 ft 410 kts 230°
2026-05-04 16:43 46.43928 6.06272 36022 ft 410 kts 230°
2026-05-04 16:45 46.33044 5.87190 36032 ft 410 kts 230°
2026-05-04 16:46 46.23943 5.71331 36016 ft 410 kts 230°
2026-05-04 16:47 46.16671 5.58726 36004 ft 409 kts 230°
2026-05-04 16:48 46.09969 5.45488 35999 ft 409 kts 234°
2026-05-04 16:49 46.03493 5.31971 35992 ft 409 kts 234°
2026-05-04 16:50 45.97013 5.18557 36004 ft 408 kts 234°
2026-05-04 16:51 45.92156 5.08546 36011 ft 408 kts 234°
2026-05-04 16:52 45.85639 4.95167 36010 ft 408 kts 234°
2026-05-04 16:53 45.80759 4.85194 36018 ft 407 kts 234°
2026-05-04 16:54 45.74228 4.71899 36013 ft 408 kts 234°
2026-05-04 16:55 45.64438 4.52080 35965 ft 406 kts 233°
2026-05-04 16:56 45.56266 4.35637 35967 ft 406 kts 233°
2026-05-04 16:57 45.51353 4.25800 35965 ft 406 kts 233°
2026-05-04 16:58 45.44778 4.12699 35961 ft 407 kts 233°
2026-05-04 17:00 45.34866 3.93065 35959 ft 407 kts 233°
2026-05-04 17:01 45.26595 3.76781 35973 ft 407 kts 233°
2026-05-04 17:02 45.20103 3.63683 35937 ft 407 kts 233°
2026-05-04 17:03 45.15242 3.53803 35935 ft 407 kts 233°
2026-05-04 17:03 45.10348 3.43921 35927 ft 406 kts 233°
2026-05-04 17:04 45.03874 3.30909 35926 ft 406 kts 233°
2026-05-04 17:05 44.97348 3.17851 35931 ft 406 kts 233°
2026-05-04 17:06 44.92452 3.08092 35935 ft 406 kts 233°
2026-05-04 17:07 44.88100 2.99447 35929 ft 407 kts 233°
2026-05-04 17:07 44.84271 2.91800 35929 ft 409 kts 234°
2026-05-04 17:08 44.79634 2.81778 35930 ft 409 kts 236°
2026-05-04 17:09 44.76560 2.75039 35930 ft 408 kts 235°
2026-05-04 17:09 44.73468 2.68323 35931 ft 409 kts 235°
2026-05-04 17:10 44.65624 2.51441 35934 ft 415 kts 234°
2026-05-04 17:11 44.62479 2.44722 35936 ft 415 kts 235°
2026-05-04 17:12 44.57740 2.34567 35932 ft 414 kts 235°
2026-05-04 17:13 44.49847 2.17752 35940 ft 415 kts 234°
2026-05-04 17:14 44.43472 2.04256 35926 ft 416 kts 234°
2026-05-04 17:15 44.38680 1.94151 35925 ft 414 kts 234°
2026-05-04 17:16 44.32343 1.80842 35922 ft 413 kts 233°
2026-05-04 17:17 44.26044 1.67418 35925 ft 413 kts 234°
2026-05-04 17:18 44.19966 1.53797 35924 ft 414 kts 235°
2026-05-04 17:19 44.13909 1.40187 35929 ft 413 kts 234°
2026-05-04 17:20 44.07854 1.26686 35926 ft 413 kts 234°
2026-05-04 17:20 44.03282 1.16532 35931 ft 413 kts 234°
2026-05-04 17:21 43.97149 1.02968 35936 ft 416 kts 235°
2026-05-04 17:22 43.94061 0.96158 35928 ft 416 kts 235°
2026-05-04 17:23 43.87889 0.82600 35940 ft 416 kts 234°
2026-05-04 17:24 43.83253 0.72457 35946 ft 417 kts 235°
2026-05-04 17:25 43.77527 0.59981 35952 ft 419 kts 235°
2026-05-04 17:26 43.71261 0.46388 35961 ft 419 kts 235°
2026-05-04 17:27 43.63416 0.29456 35976 ft 420 kts 235°
2026-05-04 17:28 43.57112 0.15920 35980 ft 419 kts 235°
2026-05-04 17:29 43.47619 -0.04345 35986 ft 420 kts 235°
2026-05-04 17:31 43.39640 -0.21269 35996 ft 420 kts 236°
2026-05-04 17:31 43.34856 -0.31380 35854 ft 421 kts 235°
2026-05-04 17:32 43.31657 -0.38110 35379 ft 420 kts 235°
2026-05-04 17:33 43.26861 -0.48172 34666 ft 420 kts 235°
2026-05-04 17:33 43.25261 -0.51523 34428 ft 419 kts 234°
2026-05-04 17:34 43.20481 -0.61512 33701 ft 418 kts 234°
2026-05-04 17:34 43.18879 -0.64851 33430 ft 418 kts 234°
2026-05-04 17:35 43.14079 -0.74833 32635 ft 421 kts 234°
2026-05-04 17:35 43.10832 -0.81566 32145 ft 426 kts 234°
2026-05-04 17:35 43.09196 -0.84951 31875 ft 427 kts 234°
2026-05-04 17:36 43.07558 -0.88339 31622 ft 426 kts 234°
2026-05-04 17:36 43.05947 -0.91668 31374 ft 424 kts 234°
2026-05-04 17:36 43.04314 -0.95039 31105 ft 421 kts 234°
2026-05-04 17:36 43.02708 -0.98353 30578 ft 415 kts 234°
2026-05-04 17:37 43.01117 -1.01633 29934 ft 410 kts 234°
2026-05-04 17:37 42.99607 -1.04861 29315 ft 406 kts 238°
2026-05-04 17:37 42.98257 -1.08198 28885 ft 396 kts 238°
2026-05-04 17:37 42.97383 -1.10372 28575 ft 391 kts 238°
2026-05-04 17:38 42.94273 -1.18154 27391 ft 377 kts 240°
2026-05-04 17:38 42.93041 -1.21242 26913 ft 373 kts 240°
2026-05-04 17:38 42.91803 -1.24342 26446 ft 369 kts 240°
2026-05-04 17:39 42.89356 -1.30464 25539 ft 365 kts 240°
2026-05-04 17:39 42.88143 -1.33495 25068 ft 363 kts 240°
2026-05-04 17:39 42.86933 -1.36514 24610 ft 360 kts 240°
2026-05-04 17:40 42.85751 -1.39462 24167 ft 358 kts 240°
2026-05-04 17:40 42.84560 -1.42429 23722 ft 355 kts 240°
2026-05-04 17:40 42.83376 -1.45374 23200 ft 353 kts 240°
2026-05-04 17:40 42.82201 -1.48295 22725 ft 350 kts 240°
2026-05-04 17:41 42.81036 -1.51190 22264 ft 347 kts 240°
2026-05-04 17:41 42.79877 -1.54067 21808 ft 345 kts 241°
2026-05-04 17:41 42.78725 -1.56923 21337 ft 343 kts 241°
2026-05-04 17:41 42.77581 -1.59760 20882 ft 341 kts 241°
2026-05-04 17:42 42.76442 -1.62578 20422 ft 338 kts 241°
2026-05-04 17:42 42.75312 -1.65371 19961 ft 336 kts 241°
2026-05-04 17:42 42.74218 -1.68117 19505 ft 334 kts 243°
2026-05-04 17:42 42.73410 -1.71060 19061 ft 332 kts 256°
2026-05-04 17:43 42.73070 -1.74173 18615 ft 332 kts 262°
2026-05-04 17:43 42.72864 -1.77289 18118 ft 330 kts 263°
2026-05-04 17:43 42.72674 -1.80395 17612 ft 327 kts 263°
2026-05-04 17:43 42.72482 -1.83470 17160 ft 324 kts 263°
2026-05-04 17:44 42.72286 -1.86514 16711 ft 322 kts 263°
2026-05-04 17:44 42.72091 -1.89511 16266 ft 321 kts 263°
2026-05-04 17:44 42.71893 -1.92525 15812 ft 320 kts 263°
2026-05-04 17:44 42.71693 -1.95532 15336 ft 318 kts 263°
2026-05-04 17:45 42.71493 -1.98516 14891 ft 316 kts 263°
2026-05-04 17:45 42.71294 -2.01484 14441 ft 314 kts 263°
2026-05-04 17:45 42.71097 -2.04400 13995 ft 312 kts 263°
2026-05-04 17:45 42.70898 -2.07331 13528 ft 311 kts 263°
2026-05-04 17:46 42.70698 -2.10260 13053 ft 309 kts 263°
2026-05-04 17:46 42.70501 -2.13161 12615 ft 307 kts 264°
2026-05-04 17:46 42.70303 -2.16056 12154 ft 305 kts 264°
2026-05-04 17:46 42.70112 -2.18915 11697 ft 302 kts 264°
2026-05-04 17:47 42.69960 -2.21710 11281 ft 299 kts 265°
2026-05-04 17:47 42.69819 -2.24539 10817 ft 299 kts 265°
2026-05-04 17:47 42.69680 -2.27348 10494 ft 293 kts 266°
2026-05-04 17:47 42.69546 -2.30046 10413 ft 278 kts 265°
2026-05-04 17:48 42.69421 -2.32586 10314 ft 267 kts 265°
2026-05-04 17:48 42.69297 -2.35072 10204 ft 259 kts 265°
2026-05-04 17:48 42.69176 -2.37500 9953 ft 256 kts 265°
2026-05-04 17:48 42.69053 -2.39932 9516 ft 259 kts 265°
2026-05-04 17:49 42.68929 -2.42355 9137 ft 260 kts 266°
2026-05-04 17:49 42.68804 -2.44816 8774 ft 262 kts 266°
2026-05-04 17:49 42.68678 -2.47288 8399 ft 262 kts 266°
2026-05-04 17:49 42.68550 -2.49777 8030 ft 263 kts 266°
2026-05-04 17:50 42.68427 -2.52299 7453 ft 271 kts 266°
2026-05-04 17:50 42.68306 -2.54840 6981 ft 272 kts 268°
2026-05-04 17:50 42.68183 -2.57398 6539 ft 272 kts 268°
2026-05-04 17:50 42.68060 -2.59976 6081 ft 272 kts 269°
2026-05-04 17:51 42.67939 -2.62529 5685 ft 270 kts 269°
2026-05-04 17:51 42.67819 -2.65067 5492 ft 267 kts 268°
2026-05-04 17:51 42.67701 -2.67570 5486 ft 269 kts 269°
2026-05-04 17:51 42.67580 -2.70122 5485 ft 270 kts 268°
2026-05-04 17:52 42.67457 -2.72678 5484 ft 271 kts 268°
2026-05-04 17:52 42.67334 -2.75238 5488 ft 269 kts 268°
2026-05-04 17:52 42.67212 -2.77709 5471 ft 254 kts 268°
2026-05-04 17:52 42.67096 -2.80040 5471 ft 241 kts 268°
2026-05-04 17:53 42.66984 -2.82251 5432 ft 228 kts 270°
2026-05-04 17:53 42.67057 -2.84323 5262 ft 219 kts 285°
2026-05-04 17:53 42.67702 -2.86133 4988 ft 212 kts 316°
2026-05-04 17:53 42.68923 -2.87177 4778 ft 207 kts 342°
2026-05-04 17:54 42.70297 -2.87728 4553 ft 205 kts 347°
2026-05-04 17:54 42.71655 -2.87946 4478 ft 189 kts 11°
2026-05-04 17:54 42.72898 -2.87427 4487 ft 187 kts 25°
2026-05-04 17:54 42.74014 -2.86500 4481 ft 189 kts 34°
2026-05-04 17:55 42.75078 -2.85446 4477 ft 188 kts 35°
2026-05-04 17:55 42.76107 -2.84431 4399 ft 182 kts 34°
2026-05-04 17:55 42.77112 -2.83449 4161 ft 177 kts 34°
2026-05-04 17:55 42.78088 -2.82489 3912 ft 166 kts 34°
2026-05-04 17:56 42.78985 -2.81605 3677 ft 151 kts 33°
2026-05-04 17:56 42.79795 -2.80807 3500 ft 136 kts 34°
2026-05-04 17:56 42.80530 -2.80084 3317 ft 128 kts 34°
2026-05-04 17:56 42.81251 -2.79374 3140 ft 127 kts 33°
2026-05-04 17:57 42.81952 -2.78683 2954 ft 119 kts 33°
2026-05-04 17:57 42.82631 -2.78016 2805 ft 128 kts 33°
2026-05-04 17:57 42.83371 -2.77286 2588 ft 131 kts 33°
2026-05-04 17:57 42.84092 -2.76567 2429 ft 126 kts 34°
2026-05-04 17:58 42.84814 -2.75856 2280 ft 130 kts 34°
2026-05-04 17:58 42.85554 -2.75136 2089 ft 130 kts 34°
2026-05-04 17:58 42.86276 -2.74424 1885 ft 124 kts 35°
2026-05-04 17:58 42.86961 -2.73748 1722 ft 124 kts 36°
2026-05-04 17:59 42.87610 -2.73110 1689 ft 100 kts 36°
2026-05-04 17:59 42.88035 -2.72691 1690 ft 51 kts 36°
2026-05-04 17:59 42.88448 -2.72286 1692 ft 29 kts 36°
2026-05-04 18:00 42.88615 -2.72167 1689 ft 25 kts 13°
2026-05-04 18:00 42.88745 -2.72196 1691 ft 14 kts 317°
2026-05-04 18:00 42.88749 -2.72283 1691 ft 9 kts 237°
2026-05-04 18:00 42.88707 -2.72334 1694 ft 8 kts 217°
2026-05-04 18:01 42.88679 -2.72362 1692 ft 7 kts 216°
2026-05-04 18:01 42.88586 -2.72451 1685 ft 17 kts 215°
2026-05-04 18:01 42.88491 -2.72546 1689 ft 16 kts 216°
2026-05-04 18:02 42.88344 -2.72690 1690 ft 15 kts 216°
2026-05-04 18:02 42.88252 -2.72779 1691 ft 20 kts 216°
2026-05-04 18:02 42.88116 -2.72913 1690 ft 25 kts 215°
2026-05-04 18:02 42.87972 -2.73055 1689 ft 25 kts 216°
2026-05-04 18:03 42.87841 -2.73185 1694 ft 18 kts 215°
2026-05-04 18:03 42.87758 -2.73267 1693 ft 9 kts 219°
2026-05-04 18:03 42.87763 -2.73324 1689 ft 8 kts 301°
2026-05-04 18:03 42.87805 -2.73406 1691 ft 11 kts 306°
2026-05-04 18:04 42.87835 -2.73490 1688 ft 9 kts 298°
2026-05-04 18:04 42.87874 -2.73530 1689 ft 5 kts
2026-05-04 18:04 42.87911 -2.73494 1690 ft 3 kts 36°
2026-05-04 18:05 42.87914 -2.73492 1689 ft 0 kts 36°